Hourly Data Report for November 19, 2021

MOUNT FOREST (AUT)
ONTARIO
Current Station Operator: ECCC - MSC

43°59'00.000" N
80°45'00.000" W
414.50 m
6145504
71631
WLS

Download Data

Hourly Data (November 2021)
Hourly Data Report for November 19, 2021
TIME
LST
Temp Definition
°C
Dew Point Definition
°C
Rel Hum Definition
%
Precip. Amount Definition
mm

Wind Dir Definition
10's deg

Wind Spd Definition
km/h
Visibility Definition
km
Stn Press Definition
kPa
Hmdx Definition


Wind Chill Definition


Weather Definition


00:00 -1.1 -1.6 97 1.2 26 11   96.77   -5 LegendNANA
01:00 -0.8 -1.6 95 0.9 26 12   96.77   -5 LegendNANA
02:00 -0.6 -1.5 94 0.3 27 12   96.81   -5 LegendNANA
03:00 -0.7 -2.8 86 0.0 29 10   96.90   -4 LegendNANA
04:00 -1.2 -2.1 93 0.0 28 16   96.97   -6 LegendNANA
05:00 -0.7 -2.4 88 0.0 28 15   97.06   -5 LegendNANA
06:00 -0.7 -2.6 87 0.0 27 13   97.13   -5 LegendNANA
07:00 -0.7 -2.1 90 0.0 28 13   97.24   -5 LegendNANA
08:00 -0.6 -1.0 97 1.2 32 10   97.36   -4 LegendNANA
09:00 -0.3 -1.2 94 0.3 29 9   97.45   -3 LegendNANA
10:00 0.2 -1.3 90 0.0 28 8   97.57     LegendNANA
11:00 1.1 -2.4 77 0.0 32 8   97.68     LegendNANA
12:00 2.0 -4.3 63 0.0 34 15   97.68     LegendNANA
13:00 2.3 -4.2 62 0.0 31 13   97.71     LegendNANA
14:00 1.7 -2.5 74 0.0 29 12   97.76     LegendNANA
15:00 0.7 -1.1 88 0.3 30 11   97.79     LegendNANA
16:00 0.6 -1.0 89 0.0 28 10   97.85     LegendNANA
17:00 0.4 -1.0 90 0.0 30 9   97.86     LegendNANA
18:00 0.2 -0.9 92 0.0 29 5   97.89     LegendNANA
19:00 -0.9 -1.5 96 0.0 15 3   97.95   -2 LegendNANA
20:00 -1.0 -1.5 97 0.0 18 5   97.95   -3 LegendNANA
21:00 -0.8 -2.5 88 0.0 19 4   97.94   -2 LegendNANA
22:00 -0.1 -2.6 83 0.0 21 8   97.93   -3 LegendNANA
23:00 0.2 -2.9 80 0.0 19 5   97.94     LegendNANA

Notes on Data Quality.

Legend

  • E = Estimated
  • M = Missing
  • NA = Not Available*
  • [empty] = Indicates an unobserved value
Date modified: